This is the latest recevied weather packets stored in our database for station/object N5ATR. If no packets are shown the sender has not sent any weather packets the latest 10 day(s).
| Time | Temp. | Humidity | Pressure | Rain* | Wind** | Luminosity | Snow |
|---|---|---|---|---|---|---|---|
| 1777641368 | 1.11° C | 99% | 1016.6 hPa | 3.05 mm | - | 29 W/m² | - |
| 1777641063 | 1.11° C | 99% | 1016.5 hPa | 1.78 mm | - | 25 W/m² | - |
| 1777640759 | 1.11° C | 98% | 1016.5 hPa | 3.05 mm | - | 18 W/m² | - |
| 1777640456 | 1.11° C | 98% | 1016.4 hPa | 3.05 mm | - | 14 W/m² | - |
| 1777640153 | 1.11° C | 98% | 1016.2 hPa | 1.78 mm | - | 12 W/m² | - |
| 1777639850 | 1.11° C | 98% | 1015.9 hPa | 1.27 mm | - | 12 W/m² | - |
| 1777639548 | 1.11° C | 98% | 1016 hPa | 1.27 mm | - | 12 W/m² | - |
| 1777639244 | 1.11° C | 98% | 1016.1 hPa | 1.78 mm | - | 9 W/m² | - |
| 1777638941 | 0.56° C | 98% | 1015.9 hPa | 1.78 mm | - | 6 W/m² | - |
| 1777638636 | 0.56° C | 98% | 1016 hPa | 1.27 mm | - | 4 W/m² | - |
| 1777638333 | 0.56° C | 98% | 1016.2 hPa | 1.27 mm | - | 2 W/m² | - |
| 1777638029 | 0.56° C | 98% | 1016 hPa | 1.78 mm | - | 2 W/m² | - |
| 1777637726 | 0.56° C | 98% | 1016.1 hPa | 1.78 mm | - | 1 W/m² | - |
| 1777637422 | 0.56° C | 98% | 1015.9 hPa | 1.78 mm | - | 1 W/m² | - |
| 1777637120 | 0° C | 98% | 1016.2 hPa | 0 mm | - | 0 W/m² | - |
| 1777636816 | 0° C | 98% | 1015.9 hPa | 1.27 mm | - | 0 W/m² | - |
| 1777636512 | 0° C | 98% | 1016 hPa | 1.27 mm | - | 0 W/m² | - |
| 1777636208 | 0° C | 98% | 1015.9 hPa | 0 mm | - | 0 W/m² | - |
| 1777635903 | 0° C | 98% | 1015.7 hPa | 1.78 mm | - | 0 W/m² | - |
| 1777635599 | 0° C | 98% | 1015.7 hPa | 1.78 mm | - | 0 W/m² | - |
| 1777635296 | 0° C | 97% | 1015.7 hPa | 0 mm | - | 0 W/m² | - |
| 1777634993 | 0.56° C | 97% | 1015.6 hPa | 1.78 mm | - | 0 W/m² | - |
| 1777634689 | 0.56° C | 97% | 1015.3 hPa | 3.05 mm | - | 0 W/m² | - |
| 1777634387 | 0.56° C | 97% | 1015.3 hPa | 1.27 mm | - | 0 W/m² | - |
| 1777634083 | 0.56° C | 96% | 1015.4 hPa | 3.05 mm | - | 0 W/m² | - |
* Rain latest hour (hover to see other rain measurements)
** Current wind speed in m/s (hover to see current wind gust speed)